カタログに戻る

STARLINK-31433

運用中通信VLEO
NORAD 59243·PAYLOAD·🇺🇸 United States

打ち上げ Mar 16, 2024 から Cape Canaveral Space Force Station

Loading…

次のパス (今後24時間)

TLE

最新Source: CelesTrak SupGP

元期: Sep 14, 2026, 21:03 UTC

1 59243C 24049N   26257.87756944 -.00024140  00000+0 -87444-3 0  2573
2 59243  43.0015 155.0249 0001320 269.3602 350.7721 15.27587854    16

AllMySatでSTARLINK-31433をリアルタイム追跡

Download on the App Store